Location: W�rzburg
(49.7529°N, 9.8822°E)
Time: 18:23:00
(UTC+02:00)

ISS - Pass Details

Date: 10 January 2018
Orbit: 401 x 409 km, 51.6° (Epoch: 22 August)

Event Time Altitude Azimuth Distance (km) Brightness Sun altitude
Exits shadow 05:05:27 16° 85° (E) 1,191 -0.7 -29.8°
Drops below altitude 10° 05:06:15 10° 87° (E) 1,512 0.0 -29.6°
Enters shadow 06:02:20 -69° 287° (WNW) 12,328 3.7 -20.6°
Maximum altitude 06:39:38 60° 205° (SSW) 489 -3.5 -14.8°
